QPF
0.00 0.00 0.00 0.00 0.00 0.00 0.00 0.00 0.00 0.00 0.00 0.00 0.00 0.00 0.00 0.00 0.00 0.00 0.00 0.00 0.01 0.00 0.00 0.00 0.00 0.01 0.04 0.03 0.02 0.00 0.00 0.00 0.00
0.00 0.00 0.00 0.00 0.00 0.00 0.00 0.00 0.00 0.00 0.00 0.00 0.00 0.00 0.00 0.00 0.00 0.00 0.00 0.00 0.01 0.00 0.00 0.00 0.00 0.00 0.00 0.00 0.00 0.02 0.00 0.00 0.00
0.00 0.00 0.00 0.00 0.00 0.00 0.00 0.00 0.00 0.00 0.00 0.00 0.00 0.00 0.00 0.00 0.00 0.00 0.00 0.00 0.00 0.00 0.00 0.00 0.00 0.00 0.00 0.00 0.00 0.00 0.01 0.02 0.00
0.00 0.00 0.00 0.00 0.00 0.00 0.00 0.00 0.00 0.00 0.00 0.00 0.00 0.00 0.00 0.00 0.00 0.00 0.00 0.00 0.00 0.00 0.00 0.00 0.00 0.00 0.00 0.00 0.00 0.00 0.03 0.07 0.05
0.00 0.00 0.00 0.01 0.00 0.00 0.00 0.00 0.00 0.00 0.00 0.00 0.00 0.00 0.00 0.00 0.00 0.00 0.00 0.00 0.00 0.00 0.00 0.00 0.00 0.00 0.00 0.00 0.00 0.00 0.04 0.06 0.07
0.00 0.00 0.00 0.02 0.00 0.00 0.00 0.00 0.00 0.00 0.00 0.00 0.00 0.00 0.00 0.00 0.00 0.00 0.00 0.00 0.00 0.00 0.00 0.00 0.00 0.00 0.00 0.00 0.00 0.01 0.02 0.05 0.10
0.00 0.00 0.00 0.00 0.02 0.01 0.00 0.00 0.02 0.00 0.00 0.00 0.00 0.00 0.00 0.00 0.00 0.00 0.00 0.00 0.00 0.00 0.00 0.00 0.00 0.00 0.00 0.00 0.00 0.00 0.00 0.03 0.03
0.00 0.00 0.00 0.00 0.02 0.02 0.00 0.01 0.01 0.02 0.00 0.00 0.00 0.00 0.00 0.00 0.00 0.00 0.00 0.00 0.00 0.00 0.00 0.00 0.00 0.00 0.00 0.00 0.00 0.00 0.01 0.05 0.06
0.02 0.02 0.01 0.00 0.00 0.00 0.00 0.00 0.00 0.00 0.00 0.00 0.00 0.01 0.00 0.00 0.00 0.00 0.00 0.01 0.01 0.00 0.00 0.00 0.00 0.00 0.00 0.00 0.00 0.00 0.02 0.02 0.00
0.02 0.02 0.01 0.01 0.02 0.00 0.00 0.00 0.00 0.00 0.01 0.03 0.06 0.04 0.04 0.06 0.09 0.08 0.12 0.14 0.15 0.08 0.08 0.07 0.03 0.01 0.01 0.03 0.02 0.00 0.00 0.00 0.00
0.00 0.00 0.00 0.00 0.01 0.01 0.00 0.00 0.00 0.00 0.00 0.00 0.01 0.04 0.05 0.09 0.10 0.13 0.15 0.10 0.11 0.12 0.13 0.16 0.10 0.04 0.02 0.01 0.01 0.01 0.00 0.00 0.00
0.00 0.00 0.00 0.00 0.00 0.01 0.03 0.02 0.00 0.00 0.03 0.02 0.02 0.02 0.06 0.06 0.06 0.05 0.05 0.05 0.04 0.05 0.08 0.08 0.11 0.09 0.06 0.04 0.03 0.02 0.00 0.00 0.00
0.00 0.00 0.00 0.00 0.00 0.00 0.00 0.02 0.00 0.00 0.03 0.08 0.06 0.03 0.00 0.00 0.01 0.01 0.01 0.02 0.02 0.04 0.04 0.05 0.05 0.04 0.02 0.01 0.01 0.02 0.01 0.01 0.00
0.00 0.00 0.00 0.00 0.00 0.00 0.00 0.00 0.00 0.01 0.00 0.00 0.00 0.00 0.00 0.00 0.01 0.02 0.03 0.03 0.03 0.04 0.03 0.03 0.02 0.01 0.01 0.01 0.02 0.03 0.03 0.03 0.02
0.00 0.00 0.00 0.00 0.00 0.00 0.00 0.00 0.00 0.00 0.00 0.00 0.00 0.00 0.00 0.01 0.01 0.01 0.03 0.04 0.03 0.02 0.01 0.01 0.01 0.01 0.03 0.04 0.01 0.01 0.03 0.04 0.03
0.00 0.00 0.00 0.00 0.00 0.00 0.00 0.00 0.00 0.00 0.00 0.01 0.00 0.00 0.00 0.00 0.00 0.01 0.01 0.01 0.00 0.00 0.00 0.00 0.01 0.01 0.02 0.01 0.00 0.00 0.00 0.00 0.01
0.00 0.00 0.00 0.00 0.00 0.00 0.00 0.00 0.00 0.00 0.00 0.00 0.00 0.00 0.00 0.00 0.01 0.03 0.00 0.01 0.00 0.00 0.00 0.02 0.02 0.02 0.02 0.02 0.01 0.01 0.01 0.00 0.00
0.00 0.00 0.00 0.00 0.00 0.00 0.00 0.00 0.00 0.00 0.00 0.00 0.00 0.00 0.00 0.00 0.02 0.04 0.03 0.04 0.03 0.02 0.02 0.04 0.05 0.03 0.02 0.02 0.01 0.00 0.00 0.00 0.00
0.00 0.00 0.00 0.00 0.00 0.00 0.00 0.00 0.00 0.00 0.00 0.00 0.00 0.00 0.00 0.01 0.01 0.01 0.01 0.01 0.02 0.02 0.02 0.02 0.03 0.02 0.02 0.01 0.00 0.00 0.00 0.00 0.00
0.00 0.00 0.00 0.00 0.00 0.00 0.00 0.00 0.00 0.00 0.00 0.00 0.00 0.00 0.00 0.00 0.00 0.00 0.00 0.00 0.00 0.00 0.00 0.00 0.01 0.00 0.00 0.00 0.00 0.00 0.00 0.00 0.00
MSLP
1010.70 1011.29 1011.66 1012.06 1012.85 1013.52 1014.06 1014.68 1015.44 1016.08 1016.78 1017.41 1017.97 1018.40 1018.80 1019.06 1019.22 1019.29 1019.40 1019.59 1019.72 1019.84 1019.95 1020.00 1020.10 1020.20 1020.28 1020.20 1020.37 1020.38 1020.44 1020.31 1020.46
1010.32 1010.56 1011.12 1011.48 1012.47 1013.17 1013.58 1014.26 1014.89 1015.52 1016.19 1016.83 1017.43 1017.84 1018.27 1018.68 1018.96 1019.15 1019.09 1019.36 1019.58 1019.64 1019.76 1019.79 1019.97 1019.99 1020.09 1020.09 1020.16 1020.20 1020.26 1020.30 1020.30
1009.94 1010.56 1011.50 1011.90 1012.45 1012.89 1013.42 1013.92 1014.37 1015.12 1015.74 1016.19 1016.78 1017.44 1017.86 1018.11 1018.45 1018.82 1019.00 1019.23 1019.38 1019.51 1019.51 1019.59 1019.68 1019.84 1019.80 1019.87 1019.89 1019.90 1019.98 1020.20 1020.17
1009.74 1010.35 1010.64 1011.50 1012.03 1012.37 1012.79 1013.59 1014.09 1014.62 1015.13 1015.79 1016.29 1016.78 1017.28 1017.70 1018.04 1018.36 1018.68 1018.88 1019.14 1019.34 1019.33 1019.32 1019.40 1019.64 1019.80 1019.82 1019.82 1019.72 1019.84 1019.99 1020.10
1010.17 1010.24 1010.74 1011.22 1011.74 1012.30 1012.66 1013.20 1013.68 1014.16 1014.63 1015.20 1015.60 1016.11 1016.77 1017.23 1017.67 1018.02 1018.22 1018.47 1018.72 1018.95 1019.10 1019.06 1019.29 1019.49 1019.58 1019.66 1019.67 1019.73 1019.66 1019.70 1019.67
1010.57 1010.61 1011.02 1011.58 1012.03 1012.60 1012.90 1013.22 1013.70 1014.07 1014.50 1014.64 1015.09 1015.66 1016.11 1016.57 1017.02 1017.39 1017.60 1017.89 1018.22 1018.54 1018.73 1018.88 1019.05 1019.32 1019.44 1019.45 1019.44 1019.52 1019.48 1019.49 1019.51
1011.53 1011.32 1011.56 1011.91 1012.21 1012.52 1012.96 1013.36 1013.79 1014.04 1014.50 1015.03 1015.10 1015.63 1015.91 1016.19 1016.44 1016.73 1016.94 1017.25 1017.68 1018.05 1018.37 1018.53 1018.69 1018.94 1019.13 1019.26 1019.30 1019.42 1019.39 1019.38 1019.26
1012.89 1012.54 1012.31 1012.46 1012.52 1012.72 1013.16 1013.63 1013.91 1014.20 1014.47 1014.80 1015.23 1015.54 1015.79 1015.90 1016.35 1016.65 1016.98 1017.09 1017.22 1017.53 1017.89 1018.22 1018.50 1018.66 1018.78 1018.97 1019.14 1019.19 1019.30 1019.28 1019.16
1014.28 1014.28 1014.15 1013.59 1013.18 1013.02 1013.44 1013.58 1013.69 1013.99 1014.32 1014.51 1014.84 1015.21 1015.36 1015.74 1016.23 1016.37 1016.56 1016.74 1016.92 1017.06 1017.35 1017.64 1018.08 1018.26 1018.35 1018.65 1018.94 1019.38 1019.48 1019.50 1019.18
1015.89 1015.96 1015.58 1015.04 1014.56 1014.43 1014.27 1014.01 1014.04 1013.96 1014.05 1014.18 1014.51 1015.16 1015.34 1015.47 1016.02 1016.18 1016.26 1016.36 1016.70 1016.64 1016.80 1017.20 1017.58 1017.83 1018.21 1018.41 1018.88 1019.25 1019.60 1019.49 1019.30
1016.50 1016.58 1016.53 1016.48 1016.18 1015.89 1015.53 1015.33 1015.01 1014.86 1014.63 1014.53 1014.79 1014.93 1015.55 1015.84 1015.84 1015.90 1016.29 1016.38 1016.49 1016.84 1016.96 1016.84 1017.13 1017.63 1018.08 1018.58 1018.91 1019.19 1019.52 1019.40 1019.28
1017.60 1017.45 1017.14 1016.84 1016.37 1016.02 1015.83 1015.70 1015.82 1015.38 1014.94 1014.91 1014.62 1015.20 1015.32 1015.50 1015.72 1015.79 1015.81 1015.84 1016.01 1016.22 1016.34 1017.24 1017.37 1017.54 1017.98 1018.37 1018.76 1019.23 1019.68 1019.58 1019.30
1018.21 1018.18 1017.88 1017.55 1017.04 1016.76 1016.39 1016.25 1015.85 1015.37 1015.25 1015.39 1015.12 1015.08 1015.40 1015.13 1015.52 1015.65 1015.70 1015.52 1015.28 1015.99 1016.32 1016.45 1017.14 1017.62 1018.15 1018.61 1018.94 1019.52 1019.44 1019.61 1019.30
1018.64 1018.62 1018.35 1017.87 1017.44 1017.14 1016.81 1016.34 1015.88 1015.97 1015.87 1016.03 1016.18 1015.76 1015.29 1015.74 1015.55 1015.71 1015.84 1015.66 1015.67 1016.18 1016.45 1016.31 1017.42 1018.15 1018.46 1018.94 1019.48 1019.55 1019.40 1019.37 1019.21
1018.74 1018.80 1018.76 1018.44 1018.12 1017.81 1017.36 1016.98 1016.79 1016.83 1016.66 1016.72 1016.23 1015.89 1016.46 1016.58 1016.42 1016.35 1016.20 1016.15 1016.26 1016.87 1017.43 1017.70 1018.09 1018.52 1019.01 1019.62 1019.75 1020.06 1019.70 1019.09 1019.58
1018.95 1019.07 1018.90 1018.66 1018.46 1018.15 1018.24 1017.99 1017.69 1017.40 1017.65 1017.38 1017.35 1017.20 1017.27 1017.48 1017.54 1017.46 1017.40 1017.22 1017.51 1017.96 1017.99 1018.85 1019.35 1019.13 1019.55 1020.01 1019.78 1020.42 1020.03 1019.53 1019.76
1019.05 1018.98 1018.87 1018.79 1018.60 1018.45 1018.39 1018.45 1018.02 1017.90 1017.88 1017.81 1017.60 1017.77 1017.86 1018.13 1018.20 1018.34 1018.55 1018.71 1018.84 1018.95 1019.44 1019.83 1019.81 1019.81 1020.15 1020.54 1020.92 1021.18 1021.26 1020.84 1020.88
1018.97 1019.04 1019.02 1019.03 1019.03 1019.06 1018.89 1018.72 1018.48 1018.38 1018.32 1018.10 1018.16 1018.51 1018.76 1018.77 1019.16 1019.50 1019.76 1020.11 1020.18 1020.47 1020.91 1020.52 1020.32 1020.39 1020.72 1021.30 1021.89 1022.46 1022.64 1022.19 1022.12
1018.93 1019.08 1019.08 1019.26 1019.26 1019.24 1019.14 1019.06 1018.78 1018.86 1018.96 1018.56 1018.70 1018.96 1019.30 1019.64 1019.68 1019.98 1020.34 1020.57 1020.76 1021.35 1021.60 1020.85 1020.89 1021.18 1021.26 1021.73 1021.89 1022.62 1022.35 1022.29 1022.20
1019.19 1019.33 1019.26 1019.26 1019.33 1019.32 1019.27 1019.25 1019.27 1019.42 1019.27 1019.48 1019.60 1019.65 1019.86 1020.07 1020.16 1020.25 1020.58 1020.61 1020.80 1021.32 1022.08 1022.14 1022.12 1022.28 1022.04 1021.85 1022.20 1022.34 1022.36 1022.04 1021.94
Thickness
5774 5775 5781 5784 5783 5782 5782 5781 5779 5776 5772 5769 5769 5768 5767 5767 5767 5767 5767 5767 5766 5765 5765 5765 5765 5765 5766 5768 5768 5768 5768 5769 5769
5768 5777 5781 5785 5782 5782 5784 5783 5782 5779 5775 5772 5771 5771 5770 5769 5769 5769 5770 5769 5769 5769 5767 5768 5767 5767 5766 5767 5767 5768 5769 5770 5769
5769 5772 5769 5771 5775 5779 5781 5784 5785 5782 5779 5776 5775 5772 5771 5771 5771 5771 5771 5770 5769 5769 5770 5769 5770 5769 5769 5768 5768 5769 5770 5769 5769
5773 5771 5775 5773 5773 5780 5782 5781 5784 5783 5781 5776 5775 5774 5772 5771 5770 5770 5770 5770 5769 5769 5770 5770 5771 5770 5769 5768 5768 5769 5770 5770 5769
5768 5772 5769 5769 5771 5772 5775 5778 5780 5782 5782 5778 5777 5776 5773 5771 5770 5769 5769 5768 5769 5768 5768 5768 5768 5768 5768 5768 5768 5769 5771 5771 5772
5763 5761 5757 5755 5758 5760 5764 5770 5772 5776 5776 5777 5777 5775 5773 5772 5770 5769 5768 5768 5769 5768 5767 5766 5766 5765 5765 5767 5769 5769 5770 5771 5771
5755 5754 5749 5746 5752 5757 5760 5762 5764 5769 5770 5767 5770 5768 5767 5767 5768 5768 5768 5768 5767 5766 5766 5765 5764 5764 5765 5766 5767 5766 5767 5767 5768
5741 5746 5748 5749 5751 5751 5754 5755 5758 5762 5766 5764 5763 5762 5762 5764 5764 5763 5763 5763 5764 5764 5763 5762 5762 5761 5761 5762 5763 5764 5763 5764 5765
5725 5726 5731 5743 5748 5753 5751 5755 5756 5758 5758 5759 5762 5758 5761 5761 5759 5759 5761 5761 5760 5761 5761 5761 5759 5759 5760 5758 5758 5751 5752 5754 5759
5707 5710 5720 5728 5734 5736 5741 5745 5745 5751 5754 5757 5756 5754 5758 5758 5756 5755 5756 5757 5757 5758 5758 5756 5754 5755 5755 5754 5751 5746 5744 5747 5752
5702 5705 5709 5711 5716 5719 5725 5728 5733 5738 5743 5747 5747 5749 5747 5748 5749 5750 5749 5751 5750 5749 5747 5750 5749 5747 5746 5743 5742 5740 5738 5740 5745
5691 5696 5703 5707 5713 5718 5721 5722 5722 5728 5736 5740 5742 5739 5740 5741 5740 5742 5744 5745 5744 5739 5738 5739 5738 5740 5738 5736 5733 5730 5728 5731 5735
5681 5685 5690 5695 5703 5707 5713 5713 5717 5723 5727 5726 5728 5730 5731 5737 5737 5734 5735 5740 5742 5737 5735 5732 5733 5731 5727 5725 5723 5718 5718 5722 5725
5672 5674 5679 5686 5695 5699 5703 5709 5713 5714 5715 5714 5712 5718 5726 5723 5727 5726 5727 5730 5730 5729 5725 5727 5721 5717 5716 5713 5709 5710 5712 5714 5715
5665 5667 5669 5674 5680 5686 5692 5698 5700 5699 5702 5703 5708 5715 5707 5709 5713 5714 5717 5717 5718 5713 5708 5709 5706 5702 5701 5697 5697 5694 5701 5706 5700
5653 5656 5660 5666 5670 5675 5677 5681 5685 5689 5689 5692 5695 5698 5698 5698 5699 5700 5701 5703 5700 5697 5699 5692 5688 5690 5688 5685 5687 5683 5687 5691 5688
5644 5648 5653 5658 5662 5666 5668 5671 5676 5678 5680 5682 5687 5687 5687 5686 5685 5685 5686 5684 5684 5684 5683 5679 5678 5677 5674 5672 5669 5669 5668 5673 5673
5637 5640 5644 5648 5650 5652 5658 5662 5665 5668 5670 5674 5675 5674 5673 5673 5669 5666 5664 5661 5662 5660 5658 5663 5668 5669 5665 5662 5658 5652 5651 5657 5656
5632 5634 5637 5638 5641 5644 5647 5651 5656 5657 5657 5662 5662 5662 5660 5655 5655 5653 5651 5649 5649 5644 5645 5652 5651 5651 5651 5646 5649 5645 5642 5645 5647
5619 5622 5626 5629 5632 5635 5639 5640 5641 5640 5644 5643 5643 5645 5643 5642 5642 5641 5638 5639 5641 5637 5631 5632 5634 5631 5634 5635 5635 5633 5633 5637 5640